Simultaneous Nadir Overpasses (SNOs) Predictions

Prediction of SNOs between GOES-15 and METOP-B Satellite Orbit:

Table of predicted SNOs for the next 14.0 days since TLE Epoch: 8/17/2018
Index Date Time (GOES-15) GOES-15 Lat,Lon METOP-B Lat,Lon Distance(km) Time Diff (sec)
1 08/17/2018 18:20:14 0.03,-135.10 -0.31,-133.42 190.27 80
2 08/19/2018 06:41:52 -0.08,-135.00 -0.77,-138.01 343.40 80
3 08/20/2018 06:18:32 -0.05,-134.96 0.40,-133.02 221.28 80
4 08/21/2018 18:40:01 0.09,-134.95 0.70,-137.56 298.09 80
5 08/22/2018 18:16:41 0.06,-134.91 -0.47,-132.58 266.22 80
6 08/24/2018 06:38:19 -0.11,-134.80 -0.61,-137.17 268.47 80
7 08/25/2018 06:14:59 -0.07,-134.76 0.50,-132.17 295.53 80
8 08/26/2018 18:36:28 0.12,-134.75 0.53,-136.72 224.76 80
9 08/27/2018 18:13:08 0.09,-134.70 -0.58,-131.73 338.98 80
10 08/29/2018 06:34:46 -0.13,-134.58 -0.50,-136.31 196.51 80
11 08/30/2018 06:11:26 -0.10,-134.54 0.61,-131.32 366.86 80




NCC Satellite Simultaneous Nadir Overpasses (SNOs) Prediction Service
